FW0019 Weather Reports


time (UTC)temp
C
wind
direction
speed
KPH
gust
KPH
rain 1hr
cm
rain 24hr
cm
rain mn
cm
humidity
%
barometer
mb
20260504050115 5 102 22.5 45.1 0.00 0.00 0.00 97 875.0
20260504044557 5 111 24.1 40.2 0.00 0.00 0.00 97 875.2
20260504043102 5 139 22.5 38.6 0.00 0.00 0.00 97 875.0
20260504041556 6 123 19.3 30.6 0.00 0.00 0.00 96 874.9
20260504034558 6 144 22.5 33.8 0.00 0.00 0.00 96 875.2
20260504033053 6 134 20.9 37.0 0.00 0.00 0.00 96 875.1
20260504031547 6 121 17.7 29.0 0.00 0.00 0.00 96 875.2
20260504030116 6 72 16.1 33.8 0.00 0.00 0.00 96 874.9
20260504024544 6 161 24.1 37.0 0.00 0.00 0.00 96 874.7
20260504023042 6 192 22.5 37.0 0.00 0.00 0.00 95 874.7
20260504021540 6 138 27.4 45.1 0.00 0.00 0.00 95 874.8
20260504020046 7 151 27.4 41.8 0.00 0.00 0.00 94 874.6
20260504014538 7 114 24.1 41.8 0.00 0.00 0.00 92 874.8
20260504013036 8 143 24.1 41.8 0.00 0.00 0.00 92 874.7
20260504011529 8 131 19.3 38.6 0.00 0.00 0.00 91 874.8
20260504010027 9 134 17.7 40.2 0.00 0.00 0.00 91 874.7
20260504004525 9 140 16.1 38.6 0.00 0.00 0.00 91 874.7
20260504003024 10 150 19.3 40.2 0.00 0.00 0.00 90 874.6
20260504001524 10 104 14.5 30.6 0.00 0.00 0.00 88 874.6
20260504000023 10 103 20.9 33.8 0.00 0.00 0.00 89 874.7
20260503234523 9 132 19.3 35.4 0.00 0.00 0.00 92 874.4
20260503233021 9 130 22.5 33.8 0.00 0.00 0.00 92 874.5
20260503231521 10 136 22.5 40.2 0.00 0.00 0.00 91 874.6
20260503230017 10 138 22.5 37.0 0.00 0.00 0.00 90 874.7
20260503224515 10 106 20.9 35.4 0.00 0.00 0.00 90 874.8
20260503223013 10 135 20.9 35.4 0.00 0.00 0.00 90 874.9
20260503221512 10 144 20.9 32.2 0.00 0.00 0.00 91 874.8
20260503220011 11 144 19.3 33.8 0.00 0.00 0.00 88 875.2
20260503214532 12 128 16.1 25.7 0.00 0.00 0.00 86 875.1
20260503213010 12 153 14.5 27.4 0.00 0.00 0.00 83 875.3
20260503211510 12 119 16.1 29.0 0.00 0.00 0.00 85 875.3
20260503210010 12 148 19.3 29.0 0.00 0.00 0.00 87 875.4
20260503204510 11 120 14.5 24.1 0.00 0.00 0.00 89 875.5
20260503203008 10 105 11.3 27.4 0.00 0.00 0.00 92 875.6
20260503201508 10 157 16.1 32.2 0.00 0.00 0.00 92 875.7
20260503200005 11 140 19.3 27.4 0.00 0.00 0.00 90 875.7
20260503194503 11 129 20.9 33.8 0.00 0.00 0.00 87 875.7
20260503193105 13 142 20.9 33.8 0.00 0.00 0.00 83 875.8
20260503191607 15 118 20.9 32.2 0.00 0.00 0.00 77 875.8
20260503184622 17 104 11.3 17.7 0.00 0.00 0.00 63 876.0
20260503183100 19 95 8.0 27.4 0.00 0.00 0.00 37 876.2
20260503181611 16 261 6.4 14.5 0.00 0.00 0.00 44 876.3
20260503180111 14 80 4.8 17.7 0.00 0.00 0.00 75 876.5
20260503174557 15 135 9.7 19.3 0.00 0.00 0.00 75 876.5
20260503173100 14 158 12.9 19.3 0.00 0.00 0.00 73 876.2
20260503171552 15 163 9.7 17.7 0.00 0.00 0.00 71 876.3
20260503081558 12 121 3.2 6.4 0.00 0.00 0.00 41 876.6
20260503080106 11 336 0.0 0.0 0.00 0.00 0.00 44 876.9